VA6ATA-15 Weather Reports


Display with metric or nautical units.
time (UTC)temp
F
wind
direction
speed
MPH
gust
MPH
rain 1hr
in
rain 24hr
in
rain mn
in
humidity
%
barometer
mb
20260906232653 58 76 7.0 9.0 0.00 0.00 0.05 80 1017.0
20260906232154 58 99 5.0 7.0 0.00 0.00 0.05 80 1017.1
20260906231653 58 106 2.0 3.0 0.00 0.00 0.05 81 1017.1
20260906231154 58 84 3.0 4.0 0.00 0.00 0.05 82 1017.0
20260906230653 58 146 3.0 4.0 0.00 0.00 0.05 81 1017.1
20260906230153 58 100 4.0 5.0 0.00 0.00 0.05 80 1017.1
20260906225653 58 82 3.0 4.0 0.00 0.00 0.05 82 1017.1
20260906225153 58 74 4.0 5.0 0.00 0.00 0.05 81 1017.2
20260906224653 57 71 4.0 5.0 0.00 0.00 0.05 81 1017.2
20260906224153 57 97 3.0 4.0 0.00 0.00 0.05 81 1017.2
20260906223653 57 145 3.0 5.0 0.00 0.00 0.05 81 1017.3
20260906223153 57 76 4.0 5.0 0.00 0.00 0.05 82 1017.3
20260906222653 57 73 5.0 6.0 0.00 0.00 0.05 82 1017.3
20260906222153 57 91 5.0 6.0 0.00 0.00 0.05 82 1017.3
20260906221654 57 66 4.0 6.0 0.00 0.00 0.05 83 1017.3
20260906221153 57 76 3.0 5.0 0.00 0.00 0.05 82 1017.3
20260906220653 57 64 3.0 4.0 0.00 0.00 0.05 83 1017.4
20260906220154 57 96 2.0 2.0 0.00 0.00 0.05 82 1017.4
20260906215653 57 86 3.0 4.0 0.00 0.00 0.05 82 1017.4
20260906215155 57 79 3.0 3.0 0.00 0.00 0.05 82 1017.5
20260906214653 57 78 3.0 5.0 0.00 0.00 0.05 82 1017.5
20260906214153 57 74 2.0 3.0 0.00 0.00 0.05 83 1017.5
20260906213653 57 71 3.0 4.0 0.00 0.00 0.05 83 1017.5
20260906213153 57 72 2.0 2.0 0.00 0.00 0.05 83 1017.5
20260906212655 57 82 3.0 4.0 0.00 0.00 0.05 83 1017.5
20260906212153 56 62 1.0 1.0 0.00 0.00 0.05 84 1017.5
20260906211653 56 83 3.0 3.0 0.00 0.00 0.05 84 1017.4
20260906211153 56 101 2.0 3.0 0.00 0.00 0.05 85 1017.5
20260906210653 56 111 1.0 2.0 0.00 0.00 0.05 87 1017.5
20260906210154 55 66 3.0 3.0 0.00 0.00 0.05 87 1017.6
20260906205653 55 140 1.0 2.0 0.00 0.00 0.05 86 1017.6
20260906205154 55 249 1.0 2.0 0.00 0.00 0.05 86 1017.8
20260906204653 54 244 1.0 1.0 0.00 0.00 0.05 89 1017.8
20260906204154 54 242 2.0 3.0 0.00 0.00 0.05 89 1017.6
20260906203653 54 235 1.0 1.0 0.00 0.00 0.05 89 1017.8
20260906203153 54 164 1.0 2.0 0.00 0.00 0.05 90 1017.8
20260906202653 54 77 1.0 2.0 0.00 0.00 0.05 92 1017.9
20260906202154 54 54 1.0 2.0 0.00 0.00 0.05 93 1017.9
20260906201654 53 228 1.0 1.0 0.00 0.00 0.05 92 1017.9
20260906201153 53 122 1.0 1.0 0.00 0.00 0.05 92 1017.9
20260906200653 53 99 1.0 2.0 0.00 0.00 0.05 92 1018.0
20260906200154 53 136 2.0 3.0 0.00 0.00 0.05 93 1018.0
20260906195653 53 218 1.0 1.0 0.00 0.00 0.05 93 1018.0
20260906195154 53 225 2.0 3.0 0.00 0.00 0.05 92 1018.1
20260906194653 52 309 1.0 1.0 0.00 0.00 0.05 94 1018.1
20260906194153 52 60 2.0 2.0 0.00 0.00 0.05 94 1018.1
20260906193653 52 77 1.0 2.0 0.00 0.00 0.05 94 1018.1
20260906193153 52 52 3.0 3.0 0.00 0.00 0.05 94 1018.1
20260906192653 52 61 1.0 2.0 0.00 0.00 0.05 95 1018.2
20260906192153 51 347 1.0 2.0 0.00 0.00 0.05 95 1018.2
20260906191653 51 316 1.0 1.0 0.00 0.00 0.05 94 1018.2
20260906191154 51 49 1.0 1.0 0.00 0.00 0.05 95 1018.3
20260906190653 51 15 1.0 1.0 0.00 0.00 0.05 95 1018.4
20260906190153 51 55 1.0 2.0 0.00 0.00 0.05 94 1018.4
20260906185653 51 339 1.0 2.0 0.00 0.00 0.05 95 1018.4
20260906185153 51 70 2.0 2.0 0.00 0.00 0.05 94 1018.4
20260906184653 51 64 1.0 1.0 0.00 0.00 0.05 94 1018.5
20260906184155 51 61 1.0 2.0 0.00 0.00 0.05 94 1018.6
20260906183654 51 74 2.0 2.0 0.00 0.00 0.05 93 1018.6
20260906183153 51 44 1.0 1.0 0.00 0.00 0.05 94 1018.6
20260906182653 50 55 1.0 1.0 0.00 0.00 0.05 94 1018.6
20260906182153 50 68 1.0 2.0 0.00 0.00 0.05 94 1018.6
20260906181653 50 67 1.0 1.0 0.00 0.00 0.05 95 1018.8
20260906181154 50 32 1.0 1.0 0.00 0.00 0.05 94 1018.6
20260906180653 50 44 1.0 2.0 0.00 0.00 0.05 94 1018.8
20260906180155 50 17 0.0 1.0 0.00 0.00 0.05 94 1018.8
20260906175653 50 43 0.0 1.0 0.00 0.00 0.05 95 1018.8
20260906175153 49 25 1.0 1.0 0.00 0.00 0.05 95 1018.9
20260906174654 49 59 1.0 2.0 0.00 0.00 0.05 95 1018.9
20260906174154 49 74 1.0 1.0 0.00 0.00 0.05 95 1019.0
20260906173653 49 79 2.0 2.0 0.00 0.00 0.05 95 1019.0
20260906173153 49 41 1.0 2.0 0.00 0.00 0.05 95 1019.0
20260906172653 49 48 2.0 2.0 0.00 0.00 0.05 95 1019.0
20260906172153 49 31 1.0 2.0 0.00 0.00 0.05 95 1019.0
20260906171653 49 48 2.0 3.0 0.00 0.00 0.05 95 1019.1
20260906171153 49 59 1.0 2.0 0.00 0.00 0.05 95 1019.2
20260906170653 48 32 1.0 1.0 0.00 0.00 0.05 95 1019.2
20260906170154 48 40 2.0 2.0 0.00 0.00 0.05 94 1019.2
20260906165653 48 63 2.0 2.0 0.00 0.00 0.05 95 1019.3
20260906165153 48 29 1.0 1.0 0.00 0.00 0.05 95 1019.3
20260906164654 48 64 2.0 3.0 0.00 0.00 0.05 95 1019.4
20260906164158 48 42 1.0 2.0 0.00 0.00 0.05 95 1019.4
20260906163653 48 5 1.0 1.0 0.00 0.00 0.05 95 1019.5
20260906163153 48 52 2.0 2.0 0.00 0.00 0.05 96 1019.5
20260906162653 48 47 2.0 2.0 0.00 0.00 0.05 95 1019.6
20260906162154 48 35 2.0 3.0 0.00 0.00 0.05 95 1019.6
20260906161653 48 64 2.0 2.0 0.00 0.00 0.05 95 1019.6
20260906161153 48 67 1.0 2.0 0.00 0.00 0.05 94 1019.8
20260906160653 48 48 2.0 3.0 0.00 0.00 0.05 94 1019.6
20260906160154 48 72 3.0 3.0 0.00 0.00 0.05 93 1019.8
20260906155654 48 72 3.0 3.0 0.00 0.00 0.05 93 1019.8
20260906155153 48 72 1.0 1.0 0.00 0.00 0.05 93 1019.8
20260906154653 47 56 2.0 3.0 0.00 0.00 0.05 93 1019.8
20260906154154 47 332 2.0 2.0 0.00 0.00 0.05 92 1019.6
20260906153653 47 6 1.0 1.0 0.00 0.00 0.05 93 1019.6
20260906153153 47 269 2.0 3.0 0.00 0.00 0.05 93 1019.6
20260906152655 47 273 2.0 3.0 0.00 0.00 0.05 93 1019.5
20260906152153 47 286 3.0 3.0 0.00 0.00 0.05 93 1019.6
20260906151653 46 279 3.0 4.0 0.00 0.00 0.05 93 1019.5
20260906151154 46 292 3.0 4.0 0.00 0.00 0.05 94 1019.5
20260906150653 46 292 3.0 5.0 0.00 0.00 0.05 94 1019.5
20260906150157 46 309 3.0 5.0 0.00 0.00 0.05 94 1019.4
20260906145654 46 1 2.0 2.0 0.00 0.00 0.05 94 1019.5
20260906145154 46 352 1.0 2.0 0.00 0.00 0.05 93 1019.6
20260906144654 46 310 3.0 4.0 0.00 0.00 0.05 93 1019.6
20260906144153 46 336 2.0 2.0 0.00 0.00 0.05 93 1019.6
20260906143653 46 355 0.0 0.0 0.00 0.00 0.05 94 1019.8
20260906143153 46 340 1.0 2.0 0.00 0.00 0.05 94 1019.8
20260906142653 46 307 1.0 2.0 0.00 0.00 0.05 94 1019.5
20260906142153 46 282 2.0 3.0 0.00 0.00 0.05 94 1019.4
20260906141653 46 293 3.0 4.0 0.00 0.00 0.05 94 1019.4
20260906141154 46 294 2.0 2.0 0.00 0.00 0.05 94 1019.6
20260906140654 46 310 2.0 3.0 0.00 0.00 0.05 94 1019.6
20260906140154 46 310 2.0 2.0 0.00 0.00 0.05 95 1019.8
20260906135653 46 313 1.0 2.0 0.00 0.00 0.05 95 1019.8
20260906135153 46 296 3.0 3.0 0.00 0.00 0.05 95 1019.8
20260906134653 46 297 2.0 3.0 0.00 0.00 0.05 95 1019.8
20260906134153 46 320 2.0 3.0 0.00 0.00 0.05 95 1019.6
20260906133653 46 340 2.0 3.0 0.00 0.00 0.05 95 1019.8
20260906133153 46 335 1.0 1.0 0.02 0.00 0.05 94 1019.9
20260906132653 47 6 2.0 3.0 0.03 0.00 0.05 94 1019.9
20260906132154 47 352 1.0 1.0 0.03 0.00 0.04 94 1019.8
20260906131654 47 244 1.0 2.0 0.03 0.00 0.04 93 1019.9
20260906131153 47 244 2.0 3.0 0.03 0.00 0.04 93 1020.0
20260906130653 47 254 3.0 3.0 0.04 0.00 0.04 93 1020.0
20260906130153 46 243 4.0 4.0 0.04 0.00 0.04 94 1020.1
20260906125653 46 277 3.0 3.0 0.04 0.00 0.04 94 1020.1
20260906125154 46 270 2.0 3.0 0.04 0.00 0.04 94 1020.1
20260906124653 46 301 2.0 2.0 0.04 0.00 0.04 94 1020.1
20260906124153 46 272 2.0 2.0 0.04 0.00 0.04 94 1020.1
20260906123653 46 313 2.0 3.0 0.03 0.00 0.04 94 1020.1
20260906123153 46 270 2.0 2.0 0.03 0.00 0.04 94 1020.2
20260906122654 46 319 1.0 1.0 0.02 0.00 0.03 94 1020.3
20260906122153 46 337 2.0 3.0 0.01 0.00 0.02 94 1020.2
20260906121653 46 337 2.0 2.0 0.01 0.00 0.02 94 1020.3
20260906121153 46 298 1.0 1.0 0.01 0.00 0.01 93 1020.3
20260906120653 46 307 2.0 2.0 0.00 0.00 0.01 93 1020.4
20260906120153 46 294 2.0 3.0 0.00 0.00 0.01 93 1020.5
20260906115653 47 328 2.0 2.0 0.00 0.00 0.00 93 1020.6
20260906115153 47 295 1.0 2.0 0.00 0.00 0.00 93 1020.9
20260906114653 47 281 2.0 3.0 0.00 0.00 0.00 93 1021.1
20260906114154 47 337 1.0 1.0 0.00 0.00 0.00 93 1021.1
20260906113653 47 316 1.0 2.0 0.00 0.00 0.00 92 1021.2
20260906113152 47 357 1.0 1.0 0.00 0.00 0.00 92 1021.2
20260906112655 47 343 1.0 1.0 0.00 0.00 0.00 92 1021.2
20260906112153 47 178 1.0 1.0 0.00 0.00 0.00 92 1021.3
20260906111653 47 315 1.0 2.0 0.00 0.00 0.00 92 1021.3
20260906111153 47 351 1.0 1.0 0.00 0.00 0.00 92 1021.3
20260906110653 47 221 1.0 1.0 0.00 0.00 0.00 92 1021.4
20260906110153 47 286 1.0 1.0 0.00 0.00 0.00 91 1021.4
20260906105653 47 346 2.0 3.0 0.00 0.00 0.00 92 1021.4
20260906105154 47 223 1.0 1.0 0.00 0.00 0.00 92 1021.4
20260906104654 46 278 1.0 1.0 0.00 0.00 0.00 92 1021.5
20260906104153 46 244 1.0 1.0 0.00 0.00 0.00 93 1021.7
20260906103653 46 269 2.0 2.0 0.00 0.00 0.00 93 1021.7
20260906103154 46 259 3.0 3.0 0.00 0.00 0.00 93 1021.5
20260906102653 46 273 4.0 5.0 0.00 0.00 0.00 93 1021.4
20260906102153 45 258 2.0 3.0 0.00 0.00 0.00 94 1021.5
20260906101654 45 294 2.0 2.0 0.00 0.00 0.00 94 1021.1
20260906101153 45 32 1.0 2.0 0.00 0.00 0.00 95 1021.0
20260906100654 45 339 1.0 2.0 0.00 0.00 0.00 94 1021.0
20260906100153 45 287 3.0 3.0 0.00 0.00 0.00 94 1021.3
20260906095654 45 304 3.0 5.0 0.00 0.00 0.00 94 1021.1
20260906095152 45 292 3.0 3.0 0.00 0.00 0.00 95 1021.1
20260906094653 45 300 3.0 4.0 0.00 0.00 0.00 95 1021.1
20260906094153 46 302 3.0 4.0 0.00 0.00 0.00 95 1021.2
20260906093654 46 313 2.0 3.0 0.00 0.00 0.00 95 1021.3
20260906093153 46 331 3.0 4.0 0.00 0.00 0.00 95 1021.5
20260906092653 46 294 2.0 2.0 0.00 0.00 0.00 95 1021.7
20260906092203 46 287 2.0 2.0 0.00 0.00 0.00 95 1021.7
20260906091653 46 262 3.0 4.0 0.00 0.00 0.00 95 1021.8
20260906091153 46 303 4.0 5.0 0.00 0.00 0.00 95 1021.7
20260906090653 46 289 4.0 4.0 0.00 0.00 0.00 95 1021.7
20260906090153 46 304 2.0 3.0 0.00 0.00 0.00 95 1021.7
20260906085653 47 305 3.0 5.0 0.00 0.00 0.00 95 1021.7
20260906085153 47 343 1.0 2.0 0.00 0.00 0.00 95 1021.8
20260906084653 47 344 2.0 3.0 0.00 0.00 0.00 95 1021.9
20260906084153 48 304 3.0 4.0 0.00 0.00 0.00 94 1021.9
20260906083653 48 325 2.0 2.0 0.00 0.00 0.00 95 1022.1
20260906083154 48 312 1.0 2.0 0.00 0.00 0.00 95 1022.2
20260906082654 48 282 1.0 1.0 0.00 0.00 0.00 95 1022.2
20260906082153 48 299 1.0 1.0 0.00 0.00 0.00 94 1022.3
20260906081653 48 61 2.0 2.0 0.00 0.00 0.00 94 1022.4
20260906081153 48 223 0.0 1.0 0.00 0.00 0.00 94 1022.4
20260906080653 48 238 2.0 2.0 0.00 0.00 0.00 94 1022.4
20260906080153 48 240 2.0 2.0 0.00 0.00 0.00 94 1022.5
20260906075653 48 225 1.0 2.0 0.00 0.00 0.00 94 1022.7
20260906075153 48 237 1.0 1.0 0.00 0.00 0.00 93 1022.5
20260906074653 48 249 1.0 2.0 0.00 0.00 0.00 94 1022.4
20260906074153 48 265 2.0 2.0 0.00 0.00 0.00 93 1022.4
20260906073653 48 278 1.0 1.0 0.00 0.00 0.00 93 1022.5
20260906073153 48 218 1.0 1.0 0.00 0.00 0.00 94 1022.4
20260906072654 48 14 1.0 1.0 0.00 0.00 0.00 94 1022.5
20260906072153 48 68 2.0 2.0 0.00 0.00 0.00 94 1022.7
20260906071653 48 96 2.0 2.0 0.00 0.00 0.00 94 1022.7
20260906071153 48 73 1.0 1.0 0.00 0.00 0.00 94 1022.7
20260906070653 48 23 0.0 1.0 0.00 0.00 0.00 93 1022.8
20260906070153 48 44 1.0 1.0 0.00 0.00 0.00 94 1022.8
20260906065653 48 73 1.0 1.0 0.00 0.00 0.00 94 1022.8
20260906065153 48 33 2.0 2.0 0.00 0.00 0.00 93 1022.8
20260906064653 48 39 2.0 2.0 0.00 0.00 0.00 93 1022.8
20260906064153 49 12 1.0 1.0 0.00 0.00 0.00 92 1022.8
20260906063653 49 342 2.0 2.0 0.00 0.00 0.00 91 1022.8
20260906063154 49 259 1.0 1.0 0.00 0.00 0.00 92 1022.8
20260906062653 49 244 1.0 1.0 0.00 0.00 0.00 92 1022.8
20260906062153 48 225 1.0 1.0 0.00 0.00 0.00 92 1022.8
20260906061653 48 254 1.0 1.0 0.00 0.00 0.00 92 1022.8
20260906061153 48 298 1.0 1.0 0.00 0.00 0.00 93 1022.8
20260906060653 48 271 1.0 1.0 0.00 0.00 0.00 93 1022.9
20260906060153 48 214 1.0 1.0 0.00 0.00 0.00 93 1022.9
20260906055654 48 346 0.0 1.0 0.00 0.00 0.13 93 1022.8
20260906055153 48 49 1.0 1.0 0.00 0.00 0.13 93 1022.8
20260906054653 48 38 2.0 2.0 0.00 0.00 0.13 92 1022.8
20260906054153 48 354 2.0 2.0 0.00 0.00 0.13 92 1022.8
20260906053653 49 44 2.0 3.0 0.00 0.00 0.13 92 1022.8
20260906053154 49 360 1.0 2.0 0.00 0.00 0.13 92 1022.8
20260906052653 49 316 1.0 1.0 0.00 0.00 0.13 92 1022.9
20260906052153 49 260 3.0 3.0 0.00 0.00 0.13 91 1022.9
20260906051653 49 347 1.0 2.0 0.00 0.00 0.13 92 1022.9
20260906051153 49 292 2.0 3.0 0.00 0.00 0.13 92 1022.8
20260906050653 49 266 4.0 6.0 0.00 0.00 0.13 92 1022.8
20260906050154 49 282 4.0 6.0 0.00 0.00 0.13 92 1022.9
20260906045653 49 277 3.0 4.0 0.00 0.00 0.13 92 1022.9
20260906045153 49 279 4.0 5.0 0.00 0.00 0.13 92 1023.0
20260906044653 49 278 4.0 5.0 0.00 0.00 0.13 92 1023.0
20260906044154 49 289 4.0 5.0 0.00 0.00 0.13 92 1023.0
20260906043653 49 294 3.0 3.0 0.00 0.00 0.13 93 1023.1
20260906043154 49 266 2.0 2.0 0.00 0.00 0.13 93 1023.2
20260906042655 49 262 1.0 1.0 0.00 0.00 0.13 93 1023.1
20260906042153 49 246 2.0 3.0 0.00 0.00 0.13 93 1023.1
20260906041654 49 267 3.0 4.0 0.00 0.00 0.13 93 1023.1
20260906041154 49 251 4.0 5.0 0.00 0.00 0.13 92 1023.1
20260906040653 49 246 2.0 2.0 0.00 0.00 0.13 92 1023.1
20260906040153 49 261 2.0 3.0 0.00 0.00 0.13 92 1023.0
20260906035654 49 231 2.0 2.0 0.00 0.00 0.13 93 1023.1
20260906035153 49 248 2.0 2.0 0.00 0.00 0.13 93 1023.0
20260906034653 49 224 2.0 2.0 0.00 0.00 0.13 93 1023.0
20260906034153 49 283 2.0 2.0 0.00 0.00 0.13 93 1022.9
20260906033653 49 305 2.0 2.0 0.00 0.00 0.13 94 1022.7
20260906033156 49 291 1.0 2.0 0.00 0.00 0.13 94 1022.7
20260906032653 49 7 0.0 0.0 0.00 0.00 0.13 94 1022.5
20260906032154 49 269 1.0 1.0 0.00 0.00 0.13 94 1022.4
20260906031653 49 263 1.0 1.0 0.00 0.00 0.13 94 1022.4
20260906031153 49 325 1.0 1.0 0.00 0.00 0.13 94 1022.3
20260906030653 49 320 1.0 2.0 0.00 0.00 0.13 94 1022.1
20260906030153 48 359 1.0 1.0 0.00 0.00 0.13 94 1022.1
20260906025653 48 328 2.0 2.0 0.00 0.00 0.13 94 1022.1
20260906025154 49 332 3.0 3.0 0.00 0.00 0.13 94 1022.0
20260906024653 49 306 1.0 2.0 0.00 0.00 0.13 94 1022.1
20260906024153 49 347 1.0 2.0 0.00 0.00 0.13 93 1022.1
20260906023653 49 6 2.0 2.0 0.00 0.00 0.13 93 1022.0
20260906023154 49 343 2.0 3.0 0.00 0.00 0.13 93 1022.0
20260906022653 49 285 2.0 2.0 0.00 0.00 0.13 94 1022.1
20260906022153 49 287 1.0 2.0 0.00 0.00 0.13 94 1022.1
20260906021654 49 331 3.0 3.0 0.00 0.00 0.13 92 1022.0
20260906021153 49 322 2.0 3.0 0.00 0.00 0.13 92 1022.1
20260906020655 49 13 2.0 3.0 0.00 0.00 0.13 93 1022.1
20260906020154 50 59 2.0 2.0 0.00 0.00 0.13 94 1022.2
20260906015654 50 2 3.0 4.0 0.00 0.00 0.13 94 1022.2
20260906015153 50 357 1.0 2.0 0.00 0.00 0.13 94 1022.2
20260906014654 50 331 3.0 4.0 0.00 0.00 0.13 93 1022.2
20260906014153 50 21 1.0 1.0 0.00 0.00 0.13 93 1022.2
20260906013653 50 360 2.0 2.0 0.01 0.00 0.13 93 1022.3
20260906013154 50 62 1.0 2.0 0.01 0.00 0.13 93 1022.3
20260906012653 50 61 1.0 2.0 0.01 0.00 0.13 93 1022.3
20260906012153 50 64 2.0 2.0 0.01 0.00 0.13 93 1022.3
20260906011653 50 37 0.0 1.0 0.01 0.00 0.13 92 1022.3
20260906011153 50 231 1.0 1.0 0.01 0.00 0.13 92 1022.3
20260906010653 50 26 1.0 1.0 0.01 0.00 0.13 93 1022.2
20260906010153 50 60 2.0 2.0 0.01 0.00 0.13 92 1022.1
20260906005653 50 326 1.0 1.0 0.01 0.00 0.13 92 1022.1
20260906005153 50 333 1.0 2.0 0.02 0.00 0.14 92 1022.1
20260906004653 50 339 3.0 3.0 0.02 0.00 0.14 92 1022.1
20260906004153 50 345 1.0 2.0 0.01 0.00 0.14 91 1022.0
20260906003653 50 51 2.0 2.0 0.00 0.00 0.14 92 1022.0
20260906003154 50 13 2.0 2.0 0.00 0.00 0.12 92 1022.0
20260906002653 50 38 3.0 4.0 0.00 0.00 0.12 92 1022.1
20260906002153 50 47 2.0 3.0 0.00 0.00 0.12 93 1022.1
20260906001653 50 34 1.0 2.0 0.00 0.00 0.12 92 1022.1
20260906001153 50 11 1.0 2.0 0.00 0.00 0.12 93 1022.1
20260906000653 50 32 2.0 2.0 0.00 0.00 0.12 92 1022.1
20260906000154 50 30 2.0 3.0 0.00 0.00 0.12 93 1022.0
20260905235653 50 53 3.0 4.0 0.00 0.00 0.12 92 1021.9
20260905235154 50 339 2.0 4.0 0.00 0.00 0.12 93 1022.0
20260905234653 50 26 2.0 4.0 0.00 0.00 0.12 93 1022.1
20260905234154 50 9 2.0 2.0 0.00 0.00 0.12 92 1022.1
20260905233653 49 12 3.0 3.0 0.00 0.00 0.12 93 1022.1
20260905233153 49 25 3.0 3.0 0.00 0.00 0.12 93 1022.1